sat.trackr.live / text

‹ back to catalog

STARLINK-36756

NORAD 67817 · 2026-032W

PAYLOAD ACTIVE UNKNOWN

§ Identity

Operator
Country
US
Launch date
2026-02-15
Launch site
AFWTR
Launch vehicle
Mass (kg)
RCS (m²)

Purposes: comms

External: N2YO · Heavens-Above · Gunter

§ Orbital elements

Epoch: 2026-09-19T22:52:49.929024Z

Period
93.91 min
Inclination
97.2855°
Eccentricity
0.0001596
Mean motion
15.33441995 rev/d
Perigee alt
464.5 km
Apogee alt
466.6 km
Semi-major
6,843.7 km
B*
2.7064e-4
RAAN
89.4022°
Arg perigee
85.4909°
Mean anomaly
274.6516°
Rev number
3,472

§ Raw data

STARLINK-367561 67817U 26032W   26262.95335566  .00008671  00000+0  27064-3 0  99952 67817  97.2855  89.4022 0001596  85.4909 274.6516 15.33441995 34729

JSON: /api/v1/satellites/67817 · /tle

For live sub-satellite position, see the globe view (requires WebGL).

§ Visibility from observer

Set your observer location to see the next 7 days of passes ≥ 10°. The values pass through the URL so the page stays shareable.

No JS? Fill the form by hand. The geolocation button needs JavaScript.